Location: Cathedral of Our Lady of Guadalupe
(37.7936°N, 100.0349°W)
Time: 15:29:16
(UTC+00:00)

Daily predictions for brighter satellites

Satellite Brightness Start Highest point End
(mag) Time Altitude Azimuth Time Altitude Azimuth Time Altitude Azimuth
H-2A R/B 4.3 12:06:51 10° ESE 12:10:13 23° ENE 12:13:38 10° NNE
Cosmos 1812 3.7 12:12:01 29° WSW 12:12:01 29° WSW 12:14:38 10° SSW
Cosmos 1151 Rocket 3.3 12:10:05 32° NW 12:11:32 43° W 12:15:38 10° SSW
SL-27 R/B 3.5 12:08:54 12° N 12:12:02 44° ENE 12:15:24 10° SE
Meteor 2-19 Rocket 4.5 12:06:32 10° S 12:12:36 84° E 12:18:40 10° N
Cosmos 1340 Rocket 3.6 12:10:45 10° S 12:14:34 52° E 12:18:27 10° NNE
NOAA 11 4.5 12:09:11 10° NNE 12:14:40 72° ESE 12:20:08 10° S
Cosmos 1503 Rocket 4.4 12:13:02 10° SW 12:17:56 38° WNW 12:22:53 10° N
CZ-2C R/B 3.6 12:14:19 10° NNE 12:19:13 59° E 12:24:22 10° S
SL-8 R/B 3.9 12:16:55 25° NW 12:19:40 67° NNE 12:24:24 10° ESE
Okean 3 Rocket 4.2 12:18:14 10° SW 12:22:20 33° WNW 12:26:26 10° NNW
Meteor 2-8 Rocket 4.4 12:16:52 10° NNW 12:22:57 67° W 12:28:59 10° S
ATLAS 5 CENTAUR R/B 1.2 12:20:03 10° SW 12:23:45 58° NW 12:27:49 10° NNE
Cosmos 1766 Rocket 4.4 12:20:41 10° SW 12:24:20 26° WNW 12:28:00 10° NNW
Cosmos 1777 Rocket 3.9 12:19:38 10° SSW 12:24:49 75° WNW 12:30:04 10° NNE
Cosmos 773 Rocket 3.9 12:26:35 10° NNW 12:31:49 87° WSW 12:36:58 10° SSE
BREEZE-M DEB 3.1 12:31:18 17° WSW 12:33:32 70° NNW 12:41:16 10° NE
Meteor 1-27 Rocket 3.8 12:27:59 10° N 12:33:42 85° E 12:39:30 10° S
Cosmos 1328 Rocket 4.2 12:31:09 13° NNW 12:34:33 34° W 12:38:27 10° SSW
CZ-4B R/B 4.2 12:32:39 10° ESE 12:34:47 16° ENE 12:36:53 10° NNE
Cosmos 1939 Rocket 3.4 12:36:24 10° NNE 12:40:16 59° E 12:44:03 10° S
Alouette 2 Rocket 4.1 12:37:13 10° N 12:40:42 50° ENE 12:44:23 10° SSE
H-2A R/B 4.4 12:42:13 15° W 12:42:13 15° W 12:43:28 10° WSW
CENTAUR R/B 4.4 12:40:34 10° NW 12:42:36 11° NNW 12:44:44 10° N
Meteor 1-31 Rocket 3.8 12:40:00 10° NNW 12:43:09 24° WNW 12:46:19 10° SW
DMSP B5D2-2 4.1 12:39:10 10° SSE 12:44:22 90° WSW 12:49:37 10° NNW
COSMO-SKYMED 1 3.5 12:41:06 10° SSW 12:44:49 28° W 12:48:35 10° NW
SL-4 R/B 2.2 12:42:08 10° SW 12:45:33 61° SE 12:49:11 10° ENE
Envisat 4.0 12:42:20 10° NNW 12:46:22 24° WNW 12:50:23 10° WSW
Cosmos 2026 Rocket 4.3 12:47:41 10° S 12:54:01 77° E 13:00:18 10° N
Cosmos 1174 4.4 12:52:16 10° WSW 12:54:38 21° NW 12:57:03 10° N
Meteor 1-25 Rocket 4.2 12:50:49 10° S 12:56:28 87° WNW 13:02:04 10° N
Cosmos 1408 Rocket 4.5 12:52:55 10° SW 12:56:29 25° WNW 13:00:05 10° NNW
Cosmos 2195 Rocket 4.4 12:51:59 10° S 12:58:07 84° W 13:04:15 10° N
Cosmos 2297 Rocket 3.9 12:58:58 10° N 13:03:58 31° ENE 13:08:56 10° ESE
Cosmos 1743 Rocket 4.0 13:02:22 10° SSW 13:06:27 38° W 13:10:32 10° N
Cosmos 1809 Rocket 4.5 13:00:48 10° S 13:06:57 80° W 13:13:07 10° N
CZ-4C R/B 4.4 13:08:22 10° SW 13:10:31 17° W 13:12:42 10° NW
ATLAS 3B R/B 2.9 13:04:29 10° SW 13:10:43 47° NW 13:17:15 10° NNE
Cosmos 2228 Rocket 3.1 13:09:50 10° NNW 13:14:20 73° W 13:18:51 10° S
COSMOS 2487 2.3 13:11:22 10° NNW 13:14:42 70° WSW 13:18:01 10° S
SJ 16-02 2.5 13:12:28 10° WSW 13:15:52 22° WNW 13:19:18 10° NNW
DELTA 2 R/B (1) 3.6 13:11:19 10° W 13:16:53 78° N 13:22:27 10° E
FALCON 9 R/B 4.0 13:08:06 10° W 13:26:11 48° SW 13:31:33 10° SE
Cosmos 990 Rocket 4.5 23:42:48 10° NNW 23:47:57 68° WSW 23:53:02 10° S
Cosmos 372 Rocket 4.5 23:43:58 10° N 23:48:51 38° ENE 23:53:43 10° SE
COSMOS 2406 3.8 23:43:32 10° SSW 23:49:14 63° WNW 23:54:55 10° NNE
USA 267 3.6 23:43:24 10° NE 23:49:51 63° NW 23:56:16 10° WSW
Cosmos 2026 Rocket 4.0 23:45:13 10° N 23:51:13 56° E 23:57:08 10° SSE
Cosmos 1340 Rocket 3.8 23:47:16 10° NNW 23:51:15 52° W 23:55:12 10° S
DEBRIS 4.3 23:52:11 10° SE 23:53:06 11° ESE 23:54:11 10° E
